[[{"header":{"parameterUnit":"m.s-1","parameterCategory":1,"la1":30.2991,"la2":30.254,"lo1":-89.0895,"lo2":-89.0444,"dy":0.0017,"dx":0.0017,"nx":28,"ny":28,"refTime":"2024-02-17T03:00:00:Z","depth":0,"parameterNumber":2,"parameterNumberName":"U-component_of_WINDS"},"data":[0,0,0,0,0,0,0,0,0,0,0,0,0,0,0,0,0,0,0,0,0,0,0,0,0,0,0,0,0,0,0,0,0,0,0,0,0,0,0,0,0,0,0,0,0,0,0,0,0,0,0,0,0,0,0,0,0,0,-0.4046,-0.4046,0,-0.4068,-0.4068,-0.4068,-0.4054,-0.4053,-0.4052,-0.4052,-0.4076,-0.4077,-0.4078,0,0,0,0,0,0,0,0,0,0,0,0,0,-0.3994,-0.3995,-0.4046,-0.4046,-0.4047,-0.4068,-0.4068,-0.4068,-0.4054,-0.4053,-0.4052,-0.4052,-0.4075,-0.4077,-0.4078,0,0,0,0,0,0,0,0,0,0,0,0,0,-0.4016,-0.3995,-0.4046,-0.4042,-0.4042,-0.4067,-0.4068,-0.4068,-0.4054,-0.4053,-0.4052,-0.4051,-0.4075,-0.4077,-0.4079,-0.411,0,0,-0.4084,-0.4085,0,0,0,0,0,0,0,0,-0.4015,-0.4018,-0.4042,-0.4042,-0.4042,-0.4057,-0.4058,-0.4082,-0.4054,-0.405,-0.4052,-0.4051,-0.407,-0.4073,-0.4079,-0.4111,-0.4112,-0.4084,-0.4086,-0.4086,-0.4087,0,0,0,0,0,0,0,-0.4013,-0.4017,-0.4055,-0.4043,-0.4043,-0.4039,-0.4041,-0.4063,-0.4065,-0.405,-0.4049,-0.4051,-0.407,-0.4077,-0.4079,-0.4113,-0.4084,-0.4086,-0.4087,-0.4088,-0.4171,-0.4172,0,0,0,0,0,0,-0.4012,-0.4016,-0.4054,-0.4055,-0.4026,-0.4041,-0.4043,-0.4053,-0.4065,-0.4066,-0.4052,-0.4051,-0.4074,-0.4077,-0.408,-0.4118,-0.4086,-0.4088,-0.4089,-0.417,-0.4171,-0.4172,0,0,0,0,0,0,-0.4011,-0.4015,-0.4053,-0.4035,-0.404,-0.4043,-0.4054,-0.4054,-0.4061,-0.4067,-0.4067,-0.4059,-0.4074,-0.4078,-0.4102,-0.4118,-0.4089,-0.4091,-0.4168,-0.417,-0.4171,-0.4193,0,0,0,0,0,0,-0.4009,-0.4015,-0.4027,-0.4036,-0.4041,-0.4075,-0.4055,-0.4055,-0.4064,-0.4062,-0.4073,-0.4074,-0.4073,-0.41,-0.4104,-0.412,-0.4092,-0.4167,-0.4169,-0.4171,-0.4191,-0.4195,-0.4198,0,0,0,0,0,-0.4007,-0.4033,-0.4028,-0.4032,-0.4056,-0.4076,-0.4079,-0.4077,-0.4065,-0.4078,-0.4081,-0.4074,-0.4115,-0.4102,-0.4107,-0.4124,-0.4166,-0.4168,-0.4171,-0.4189,-0.4194,-0.4198,0,0,0,0,0,0,-0.4027,-0.4034,-0.4028,-0.4057,-0.4066,-0.4073,-0.4089,-0.4083,-0.4095,-0.4093,-0.4091,-0.4093,-0.4119,-0.4124,-0.4109,-0.4155,-0.4139,-0.4142,-0.4151,-0.4156,-0.416,-0.4158,-0.4094,0,0,0,0,0,-0.4035,-0.405,-0.4055,-0.408,-0.4084,-0.4086,-0.4095,-0.4092,-0.4101,-0.4105,-0.4111,-0.412,-0.4135,-0.4146,-0.416,-0.4191,-0.4193,-0.4204,-0.4208,-0.4212,-0.4215,-0.4231,-0.4236,-0.418,-0.418,-0.418,0,0,-0.4051,-0.4056,-0.4066,-0.4084,-0.4091,-0.4107,-0.4089,-0.4107,-0.4119,-0.4108,-0.4132,-0.4136,-0.4146,-0.4174,-0.4187,-0.4179,-0.4231,-0.4215,-0.4217,-0.4219,-0.4234,-0.424,-0.4244,-0.4182,-0.4181,-0.4181,0,0,-0.4089,-0.4094,-0.4115,-0.4122,-0.4131,-0.4131,-0.4136,-0.4144,-0.4146,-0.417,-0.4161,-0.4176,-0.4202,-0.421,-0.4217,-0.4256,-0.4249,-0.426,-0.4281,-0.4297,-0.4301,-0.4305,-0.4319,-0.4324,-0.4263,-0.4263,-0.4263,0,-0.4108,-0.4131,-0.4127,-0.4145,-0.4153,-0.4142,-0.4164,-0.417,-0.4184,-0.419,-0.4181,-0.4213,-0.4219,-0.4249,-0.4258,-0.4264,-0.427,-0.426,-0.4301,-0.4305,-0.4308,-0.4322,-0.4327,-0.4265,-0.4265,-0.4264,-0.4264,0,-0.4154,-0.4171,-0.4187,-0.42,-0.4209,-0.4229,-0.4228,-0.4238,-0.4234,-0.4235,-0.4259,-0.4265,-0.4281,-0.4287,-0.4284,-0.4316,-0.431,-0.4301,-0.4285,-0.4315,-0.4328,-0.4333,-0.4267,-0.4266,-0.4266,-0.4265,0,0,-0.4208,-0.4216,-0.4222,-0.4227,-0.4236,-0.4249,-0.4268,-0.4281,-0.429,-0.43,-0.4316,-0.4337,-0.4328,-0.4336,-0.4334,-0.4347,-0.4377,-0.4336,-0.4336,-0.4344,-0.4413,-0.442,-0.4426,-0.4372,-0.4373,-0.4374,-0.4412,0,-0.4246,-0.4279,-0.4274,-0.4306,-0.4321,-0.431,-0.4326,-0.4333,-0.4334,-0.4347,-0.4349,-0.4364,-0.4351,-0.4356,-0.4368,-0.4371,-0.4391,-0.4368,-0.4388,-0.4389,-0.4387,-0.4433,-0.4441,-0.4477,-0.4417,-0.4417,-0.4418,0,-0.4296,-0.4306,-0.4339,-0.4344,-0.435,-0.4365,-0.4377,-0.4389,-0.4397,-0.4397,-0.4405,-0.4399,-0.4418,-0.4401,-0.4427,-0.4411,-0.4419,-0.4421,-0.4422,-0.4425,-0.4406,-0.4438,-0.4488,-0.4494,-0.4426,-0.4425,-0.4424,0,-0.4332,-0.4354,-0.4376,-0.4381,-0.4387,-0.4398,-0.4401,-0.4408,-0.4416,-0.4426,-0.4432,-0.4444,-0.4451,-0.4461,-0.4459,-0.4446,-0.4485,-0.4468,-0.4486,-0.4486,-0.4496,-0.4496,-0.4549,-0.4499,-0.4499,-0.4499,-0.4499,0,-0.4376,-0.4397,-0.4392,-0.4406,-0.4428,-0.4423,-0.4445,-0.4447,-0.4453,-0.4467,-0.4457,-0.4471,-0.4466,-0.448,-0.4478,-0.45,-0.4503,-0.4503,-0.4503,-0.4505,-0.4505,-0.4511,-0.4509,-0.4501,-0.45,-0.45,-0.45,0,-0.4421,-0.4419,-0.4442,-0.4446,-0.4447,-0.4464,-0.4467,-0.448,-0.4479,-0.4497,-0.4501,-0.45,-0.4515,-0.4513,-0.453,-0.4529,-0.4556,-0.4552,-0.4553,-0.4553,-0.4572,-0.457,-0.4632,-0.4639,-0.4584,-0.4584,-0.4585,0,-0.4451,-0.4466,-0.4471,-0.4479,-0.4483,-0.4496,-0.4504,-0.4499,-0.4507,-0.4516,-0.4528,-0.4541,-0.4552,-0.4576,-0.4578,-0.459,-0.4587,-0.4608,-0.4589,-0.459,-0.4588,-0.4588,-0.4589,-0.4612,-0.4613,-0.4613,-0.4614,0,-0.4503,-0.45,-0.4511,-0.4522,-0.4531,-0.454,-0.4547,-0.4555,-0.455,-0.456,-0.4574,-0.4582,-0.4599,-0.4612,-0.4624,-0.4627,-0.462,-0.4619,-0.4624,-0.4627,-0.4627,-0.4628,-0.4564,-0.4618,-0.4618,-0.4617,-0.4617,-0.4617,-0.4541,-0.4554,-0.4559,-0.4572,-0.4576,-0.4583,-0.4595,-0.4595,-0.4607,-0.4619,-0.4615,-0.4631,-0.4637,-0.4652,-0.4656,-0.4669,-0.4662,-0.4669,-0.4671,-0.4673,-0.4675,-0.4624,-0.4671,-0.4671,-0.4671,-0.4671,-0.4671,0,-0.4593,-0.4595,-0.4607,-0.4617,-0.4627,-0.4617,-0.4624,-0.4633,-0.4648,-0.4653,-0.4664,-0.468,-0.4693,-0.4694,-0.4706,-0.4716,-0.4713,-0.472,-0.4719,-0.472,-0.4681,-0.4676,-0.4722,-0.4722,-0.4722,-0.4722,-0.4722,-0.4722,-0.4622,-0.4643,-0.464,-0.4663,-0.4665,-0.4681,-0.4686,-0.4692,-0.4696,-0.4714,-0.4725,-0.4725,-0.4729,-0.4741,-0.4752,-0.4752,-0.4757,-0.4765,-0.4764,-0.4728,-0.4723,-0.4718,-0.4713,-0.4766,-0.4767,-0.4802,-0.4803,-0.4803]},{"header":{"parameterUnit":"m.s-1","parameterCategory":1,"la1":30.2991,"la2":30.254,"lo1":-89.0895,"lo2":-89.0444,"dy":0.0017,"dx":0.0017,"nx":28,"ny":28,"refTime":"2024-02-17T03:00:00:Z","depth":0,"parameterNumber":3,"parameterNumberName":"V-component_of_WINDS"},"data":[0,0,0,0,0,0,0,0,0,0,0,0,0,0,0,0,0,0,0,0,0,0,0,0,0,0,0,0,0,0,0,0,0,0,0,0,0,0,0,0,0,0,0,0,0,0,0,0,0,0,0,0,0,0,0,0,0,0,-8.3124,-8.3125,0,-8.3251,-8.3253,-8.3254,-8.319,-8.3187,-8.3184,-8.3181,-8.3305,-8.3311,-8.3317,0,0,0,0,0,0,0,0,0,0,0,0,0,-8.2819,-8.2825,-8.3124,-8.3125,-8.3127,-8.3251,-8.3253,-8.3254,-8.3191,-8.3187,-8.3183,-8.3179,-8.3303,-8.331,-8.3318,0,0,0,0,0,0,0,0,0,0,0,0,0,-8.295,-8.2827,-8.3123,-8.311,-8.311,-8.3251,-8.3253,-8.3255,-8.3192,-8.3187,-8.3182,-8.3177,-8.33,-8.3309,-8.3319,-8.3477,0,0,-8.3348,-8.3352,0,0,0,0,0,0,0,0,-8.2942,-8.2961,-8.3111,-8.3111,-8.3112,-8.32,-8.3191,-8.3329,-8.3193,-8.3161,-8.3181,-8.3175,-8.3273,-8.3285,-8.3319,-8.3483,-8.3488,-8.3349,-8.3355,-8.3359,-8.3362,0,0,0,0,0,0,0,-8.2933,-8.2955,-8.3174,-8.3113,-8.3114,-8.3096,-8.3109,-8.3217,-8.3243,-8.3163,-8.3159,-8.3175,-8.3273,-8.331,-8.3322,-8.349,-8.3349,-8.3357,-8.3363,-8.3367,-8.3791,-8.3796,0,0,0,0,0,0,-8.2926,-8.2948,-8.317,-8.3178,-8.3013,-8.3106,-8.312,-8.3177,-8.3242,-8.3247,-8.3179,-8.3172,-8.3296,-8.3311,-8.3326,-8.3517,-8.3359,-8.3368,-8.3373,-8.3785,-8.3792,-8.3798,0,0,0,0,0,0,-8.2919,-8.2946,-8.3165,-8.3062,-8.3088,-8.3116,-8.318,-8.3182,-8.3219,-8.3254,-8.3258,-8.3213,-8.3293,-8.3313,-8.3441,-8.352,-8.3372,-8.3381,-8.3779,-8.3787,-8.3795,-8.3899,0,0,0,0,0,0,-8.2911,-8.2944,-8.3006,-8.3064,-8.3094,-8.3279,-8.3185,-8.3188,-8.3237,-8.3228,-8.3287,-8.3292,-8.3291,-8.3427,-8.345,-8.3531,-8.3388,-8.3772,-8.3782,-8.3792,-8.3889,-8.391,-8.3928,0,0,0,0,0,-8.29,-8.3029,-8.301,-8.3037,-8.3172,-8.3284,-8.3301,-8.3299,-8.3244,-8.3305,-8.3328,-8.329,-8.3508,-8.3441,-8.3466,-8.3551,-8.3767,-8.3779,-8.3791,-8.388,-8.3906,-8.3927,0,0,0,0,0,0,-8.2977,-8.3036,-8.3015,-8.3167,-8.3221,-8.3273,-8.3351,-8.3326,-8.3396,-8.3385,-8.3377,-8.3391,-8.3524,-8.355,-8.3474,-8.3708,-8.3628,-8.3646,-8.3687,-8.3711,-8.3731,-8.3722,-8.3396,0,0,0,0,0,-8.3012,-8.31,-8.3146,-8.3274,-8.3303,-8.3323,-8.3371,-8.3365,-8.342,-8.3442,-8.3474,-8.3527,-8.3608,-8.3661,-8.3736,-8.3892,-8.3903,-8.3962,-8.3982,-8.3998,-8.4014,-8.4099,-8.4125,-8.3838,-8.3838,-8.3838,0,0,-8.3084,-8.3127,-8.3183,-8.3291,-8.3333,-8.3423,-8.3342,-8.344,-8.3507,-8.3456,-8.3581,-8.3606,-8.3664,-8.3808,-8.3872,-8.3833,-8.4096,-8.4014,-8.4026,-8.4034,-8.4114,-8.4141,-8.4165,-8.3847,-8.3845,-8.3844,0,0,-8.3262,-8.3304,-8.3416,-8.346,-8.3525,-8.3538,-8.3565,-8.3621,-8.3637,-8.3762,-8.3726,-8.3803,-8.3942,-8.3986,-8.4026,-8.4222,-8.419,-8.4247,-8.435,-8.4432,-8.4455,-8.4475,-8.4546,-8.4571,-8.4262,-8.4262,-8.4263,0,-8.3343,-8.348,-8.3477,-8.3579,-8.3627,-8.3589,-8.3702,-8.3744,-8.3829,-8.3863,-8.3818,-8.3993,-8.4029,-8.4182,-8.4231,-8.4264,-8.4294,-8.424,-8.4452,-8.4472,-8.4491,-8.4558,-8.4585,-8.4269,-8.4268,-8.4268,-8.4267,0,-8.3576,-8.3671,-8.3754,-8.3841,-8.3898,-8.4005,-8.4018,-8.4076,-8.4065,-8.4081,-8.4209,-8.4251,-8.4336,-8.4371,-8.436,-8.4523,-8.4497,-8.4453,-8.4373,-8.4525,-8.4588,-8.4614,-8.4278,-8.4276,-8.4274,-8.4272,0,0,-8.3806,-8.3892,-8.3922,-8.3962,-8.4031,-8.4103,-8.4208,-8.4293,-8.4343,-8.4403,-8.449,-8.4609,-8.4569,-8.4615,-8.4608,-8.4681,-8.4834,-8.4627,-8.4628,-8.4665,-8.5017,-8.5051,-8.5081,-8.4813,-8.4818,-8.4822,-8.5013,0,-8.399,-8.4177,-8.4178,-8.4349,-8.4436,-8.4401,-8.4492,-8.4544,-8.4562,-8.4637,-8.4655,-8.4741,-8.4681,-8.4709,-8.4779,-8.4801,-8.4905,-8.4787,-8.4894,-8.4898,-8.4881,-8.5114,-8.515,-8.5328,-8.5037,-8.5041,-8.5044,0,-8.4229,-8.4301,-8.4482,-8.454,-8.4576,-8.4659,-8.4737,-8.481,-8.4867,-8.4875,-8.4928,-8.491,-8.5015,-8.4932,-8.5076,-8.4996,-8.5039,-8.5057,-8.5063,-8.5074,-8.4981,-8.5131,-8.5384,-8.5411,-8.5083,-8.508,-8.5077,0,-8.4381,-8.4521,-8.4648,-8.4683,-8.4753,-8.4812,-8.4843,-8.4896,-8.4947,-8.5015,-8.5048,-8.5126,-8.5169,-8.5228,-8.5232,-8.5171,-8.5378,-8.5294,-8.5387,-8.5387,-8.5432,-8.543,-8.5697,-8.5459,-8.5459,-8.5458,-8.5458,0,-8.4587,-8.4699,-8.4717,-8.4796,-8.492,-8.4919,-8.5041,-8.5067,-8.5114,-8.5196,-8.5168,-8.5245,-8.5244,-8.5321,-8.5324,-8.5444,-8.5463,-8.5471,-8.5471,-8.5475,-8.5474,-8.5504,-8.5492,-8.5465,-8.5464,-8.5462,-8.5461,0,-8.4777,-8.4794,-8.493,-8.4986,-8.5003,-8.5092,-8.5139,-8.5213,-8.5228,-8.5332,-8.5356,-8.538,-8.547,-8.5479,-8.5582,-8.5584,-8.5729,-8.5715,-8.5711,-8.5709,-8.5801,-8.5793,-8.6097,-8.6137,-8.5873,-8.5875,-8.5877,0,-8.4908,-8.4994,-8.506,-8.5114,-8.515,-8.5236,-8.5289,-8.5291,-8.5347,-8.542,-8.5484,-8.5572,-8.5642,-8.5787,-8.5812,-8.5891,-8.5879,-8.598,-8.5891,-8.5892,-8.5882,-8.5877,-8.5886,-8.5998,-8.6001,-8.6003,-8.6005,0,-8.5139,-8.5143,-8.5222,-8.5305,-8.537,-8.5434,-8.5494,-8.5539,-8.5548,-8.5612,-8.5705,-8.576,-8.5867,-8.5954,-8.6032,-8.6062,-8.6036,-8.6033,-8.6059,-8.6064,-8.6059,-8.6064,-8.576,-8.6026,-8.6024,-8.6023,-8.6022,-8.6021,-8.5304,-8.5379,-8.5439,-8.5528,-8.5574,-8.5631,-8.5704,-8.573,-8.5808,-8.5898,-8.5893,-8.5995,-8.605,-8.6152,-8.6188,-8.6267,-8.6233,-8.627,-8.6279,-8.6289,-8.6299,-8.6046,-8.6281,-8.628,-8.6279,-8.6279,-8.6279,0,-8.5535,-8.5571,-8.5653,-8.574,-8.581,-8.5781,-8.5846,-8.5906,-8.5998,-8.6052,-8.6123,-8.623,-8.6314,-8.6347,-8.6429,-8.6486,-8.6476,-8.6507,-8.6504,-8.6511,-8.6324,-8.6294,-8.6514,-8.6514,-8.6514,-8.6514,-8.6514,-8.6514,-8.5663,-8.579,-8.5801,-8.595,-8.5985,-8.6088,-8.6128,-8.618,-8.6224,-8.6345,-8.6416,-8.6438,-8.6483,-8.6569,-8.6645,-8.6652,-8.6683,-8.6721,-8.6723,-8.6548,-8.6524,-8.6501,-8.6473,-8.6728,-8.6728,-8.6904,-8.6905,-8.6906]}]]